COSMOS 1275 DEB, 42228

Orbit data source: Space-Track

COSMOS 1275 DEB, 42228 is space debris in LEO originally from a launch on Thu, 04 Jun 1981 UTC launched from the Plesetsk Missile And Space Complex (PKMTR). Debris objects in space refer to the collection of defunct objects orbiting the Earth. Examples of debris include non-operational satellites, rocket bodies, and fragments generated from explosions, collisions, or faulty payload assembly.

Loading next visibility...
Identifier
42228, 1981-053UU
Orbit
LEO
Country
Flag of CISCIS
Related business
Manufacturer
Unknown
Mission
Spacecraft
Bus & Motor
Unknown
Mass
Unknown
Launch date (UTC)
1981-06-04 (44 years ago)
Launch vehicle
Unknown
Launch site
Plesetsk Missile And Space Complex (PKMTR)
Object type
Payload
Rocket body
Debris
Shape & HBR
Unknown shape, 0.1 m
Radar Cross Section
Small (<0.1 m²)

Expand to show TLE details & history
Last TLE update: 2 weeks ago

TLE from 2 weeks ago
0 COSMOS 1275 DEB
1 42228U 81053UU  25279.98702949  .00000715  00000-0  64321-3 0  9990
2 42228  82.9374  13.5127 0039513   5.8689 354.2925 13.82456783 46758
Epoch: 2025-10-06T23:41Z
TLE epoch observation values (Epoch: 2025-10-06T23:41:19.347Z)
Latitude
-0.00013°
Longitude
2.29967°
Altitude
929.259 km
Speed
7.402 km/s
True Right ascension
00h 54m 03s
True Declination
0° 00' 00"
Sunlit
Object was in full shadow at epoch
Visualization orbit readout
Latitude
Unknown
Longitude
Unknown
Altitude
Unknown
Speed
Unknown
Apparent Right ascension
Unknown
Apparent Declination
Unknown
Sunlit
N/A
Visualization observer readout
Local Sidereal Time
03:56:17
Azimuth
Unknown
Elevation
Unknown
Doppler factor
Unknown
Orbital elements
Apogee altitude
981.289 km
Perigee altitude
923.36 km
Semi-major axis
7,330.461 km
Eccentricity
0.00395
Inclination
82.9374°
RAAN
13.5127°
Arg. of periapsis
5.8689°
True anomaly
354.24725°
Mean anomaly
354.2925°
Eccentric anomaly
354.2699°
Mean motion
3.45817 °/min
Orbital period
104.1 mins
BSTAR
0.00064321
Loading maneuver chart data...
Computing Atmospheric mass density...
Loading historical data...
Loading historical data...
Loading historical data...
Loading historical data...
Loading historical data...
Loading historical data...
Loading historical data...

Documentation

Showing up to 5 results
|